Location: Ethel Rock
(53.4667°N, 4.5667°W)
Time: 05:36:47
(UTC+00:00)

Cosmos 468 - Pass Details

Date: 24 October 2020
Orbit: 761 x 783 km, 74.0° (Epoch: 25 November)

Event Time Altitude Azimuth Distance (km) Brightness Sun altitude
Exits shadow 04:27:55 53° 215° (SW) 964 4.7 -23.5°
Maximum altitude 04:29:14 83° 296° (WNW) 796 4.4 -23.3°
Drops below altitude 10° 04:34:37 10° 25° (NNE) 2,354 7.5 -22.6°
Sets 04:37:01 0° 27° (NNE) 3,286 8.3 -22.2°
